| time (UTC) | temp F | wind direction | speed MPH | gust MPH | rain 1hr in | rain 24hr in | rain mn in | humidity % | barometer mb |
| 20260506221508 | 80 | 203 | 5.0 | 9.0 | 0.00 | 0.01 | 0.01 | 71 | 1014.9 |
| 20260506220008 | 80 | 108 | 5.0 | 10.0 | 0.00 | 0.01 | 0.01 | 70 | 1015.0 |
| 20260506214506 | 81 | 130 | 4.0 | 11.0 | 0.00 | 0.01 | 0.01 | 69 | 1015.6 |
| 20260506213008 | 82 | 181 | 5.0 | 10.0 | 0.00 | 0.01 | 0.01 | 67 | 1015.5 |
| 20260506211506 | 81 | 143 | 4.0 | 10.0 | 0.00 | 0.01 | 0.01 | 69 | 1015.5 |
| 20260506210016 | 82 | 143 | 4.0 | 9.0 | 0.00 | 0.01 | 0.01 | 67 | 1015.6 |
| 20260506204511 | 81 | 153 | 5.0 | 15.0 | 0.00 | 0.01 | 0.01 | 70 | 1015.7 |
| 20260506203010 | 81 | 120 | 4.0 | 11.0 | 0.00 | 0.01 | 0.01 | 70 | 1015.7 |
| 20260506201512 | 82 | 182 | 3.0 | 11.0 | 0.00 | 0.01 | 0.01 | 69 | 1016.0 |
| 20260506200009 | 83 | 181 | 4.0 | 12.0 | 0.00 | 0.01 | 0.01 | 68 | 1016.5 |
| 20260506194511 | 84 | 161 | 4.0 | 11.0 | 0.00 | 0.01 | 0.01 | 65 | 1016.7 |
| 20260506193015 | 84 | 70 | 2.0 | 11.0 | 0.00 | 0.01 | 0.01 | 66 | 1016.8 |
| 20260506191512 | 84 | 86 | 2.0 | 10.0 | 0.00 | 0.01 | 0.01 | 65 | 1016.9 |
| 20260506190012 | 84 | 153 | 4.0 | 10.0 | 0.00 | 0.01 | 0.01 | 64 | 1017.1 |
| 20260506184513 | 83 | 212 | 4.0 | 10.0 | 0.00 | 0.01 | 0.01 | 64 | 1017.2 |
| 20260506183016 | 84 | 212 | 5.0 | 11.0 | 0.00 | 0.01 | 0.01 | 63 | 1017.2 |
| 20260506181513 | 84 | 130 | 3.0 | 9.0 | 0.00 | 0.01 | 0.01 | 63 | 1017.3 |
| 20260506180025 | 83 | 154 | 3.0 | 12.0 | 0.00 | 0.01 | 0.01 | 66 | 1017.5 |
| 20260506174520 | 83 | 105 | 2.0 | 12.0 | 0.00 | 0.01 | 0.01 | 67 | 1017.6 |
| 20260506173022 | 83 | 162 | 4.0 | 11.0 | 0.00 | 0.01 | 0.01 | 69 | 1017.7 |
| 20260506171517 | 83 | 152 | 2.0 | 13.0 | 0.00 | 0.01 | 0.01 | 65 | 1017.9 |
| 20260506170021 | 83 | 176 | 5.0 | 10.0 | 0.00 | 0.01 | 0.01 | 69 | 1017.9 |
| 20260506164520 | 82 | 162 | 5.0 | 10.0 | 0.00 | 0.01 | 0.01 | 70 | 1017.7 |
| 20260506163030 | 82 | 192 | 5.0 | 12.0 | 0.00 | 0.01 | 0.01 | 70 | 1017.6 |
| 20260506161520 | 80 | 166 | 5.0 | 10.0 | 0.00 | 0.01 | 0.01 | 73 | 1017.5 |
| 20260506160021 | 80 | 140 | 5.0 | 15.0 | 0.00 | 0.01 | 0.01 | 73 | 1017.4 |
| 20260506154524 | 81 | 228 | 4.0 | 12.0 | 0.00 | 0.01 | 0.01 | 74 | 1017.4 |
| 20260506153021 | 80 | 231 | 5.0 | 11.0 | 0.00 | 0.01 | 0.01 | 74 | 1017.3 |
| 20260506151526 | 79 | 161 | 6.0 | 11.0 | 0.00 | 0.01 | 0.01 | 75 | 1017.1 |
| 20260506150018 | 79 | 200 | 5.0 | 12.0 | 0.00 | 0.01 | 0.01 | 76 | 1017.0 |
| 20260506144525 | 79 | 153 | 6.0 | 12.0 | 0.00 | 0.01 | 0.01 | 76 | 1016.7 |
| 20260506143004 | 79 | 148 | 7.0 | 13.0 | 0.00 | 0.01 | 0.01 | 77 | 1016.7 |
| 20260506141507 | 79 | 232 | 3.0 | 11.0 | 0.00 | 0.01 | 0.01 | 79 | 1016.6 |
| 20260506140016 | 78 | 193 | 6.0 | 10.0 | 0.01 | 0.01 | 0.01 | 81 | 1016.4 |
| 20260506134521 | 75 | 150 | 5.0 | 8.0 | 0.01 | 0.01 | 0.01 | 88 | 1016.4 |
| 20260506133024 | 73 | 182 | 3.0 | 7.0 | 0.01 | 0.01 | 0.01 | 95 | 1016.2 |
| 20260506131507 | 73 | 181 | 2.0 | 6.0 | 0.01 | 0.01 | 0.01 | 97 | 1016.0 |
| 20260506130011 | 71 | 165 | 0.0 | 2.0 | 0.00 | 0.00 | 0.00 | 97 | 1015.9 |
| 20260506124517 | 69 | 171 | 0.0 | 2.0 | 0.00 | 0.00 | 0.00 | 97 | 1015.7 |
| 20260506123024 | 68 | 124 | 0.0 | 2.0 | 0.00 | 0.00 | 0.00 | 97 | 1015.5 |
| 20260506121527 | 67 | 66 | 1.0 | 3.0 | 0.00 | 0.00 | 0.00 | 97 | 1015.1 |
| 20260506120028 | 66 | 109 | 1.0 | 4.0 | 0.00 | 0.00 | 0.00 | 97 | 1014.9 |
| 20260506114511 | 65 | 113 | 0.0 | 2.0 | 0.00 | 0.00 | 0.00 | 97 | 1014.7 |
| 20260506113018 | 64 | 70 | 0.0 | 0.0 | 0.00 | 0.00 | 0.00 | 97 | 1014.5 |
| 20260506111524 | 63 | 45 | 0.0 | 1.0 | 0.00 | 0.00 | 0.00 | 97 | 1014.4 |
| 20260506110027 | 64 | 2 | 0.0 | 0.0 | 0.00 | 0.00 | 0.00 | 97 | 1014.2 |
| 20260506104529 | 64 | 285 | 0.0 | 0.0 | 0.00 | 0.00 | 0.00 | 97 | 1014.2 |
| 20260506103022 | 64 | 285 | 0.0 | 0.0 | 0.00 | 0.00 | 0.00 | 97 | 1014.0 |
| 20260506101506 | 64 | 285 | 0.0 | 0.0 | 0.00 | 0.00 | 0.00 | 97 | 1013.9 |
| 20260506100004 | 63 | 285 | 0.0 | 0.0 | 0.00 | 0.00 | 0.00 | 97 | 1013.9 |
| 20260506094519 | 64 | 285 | 0.0 | 0.0 | 0.00 | 0.00 | 0.00 | 97 | 1014.1 |
| 20260506093015 | 63 | 285 | 0.0 | 0.0 | 0.00 | 0.00 | 0.00 | 97 | 1014.0 |
| 20260506091518 | 63 | 261 | 0.0 | 0.0 | 0.00 | 0.00 | 0.00 | 97 | 1014.0 |
| 20260506090005 | 63 | 261 | 0.0 | 0.0 | 0.00 | 0.00 | 0.00 | 96 | 1014.2 |
| 20260506084505 | 63 | 196 | 0.0 | 0.0 | 0.00 | 0.00 | 0.00 | 95 | 1014.2 |
| 20260506083012 | 65 | 198 | 0.0 | 0.0 | 0.00 | 0.00 | 0.00 | 97 | 1014.3 |
| 20260506081514 | 65 | 302 | 0.0 | 0.0 | 0.00 | 0.00 | 0.00 | 97 | 1014.5 |
| 20260506073011 | 64 | 147 | 0.0 | 0.0 | 0.00 | 0.00 | 0.00 | 95 | 1014.3 |
| 20260506071514 | 66 | 148 | 0.0 | 0.0 | 0.00 | 0.00 | 0.00 | 96 | 1014.5 |
| 20260506061508 | 65 | 150 | 0.0 | 0.0 | 0.00 | 0.00 | 0.00 | 96 | 1014.8 |
| 20260506044547 | 68 | 165 | 0.0 | 0.0 | 0.00 | 0.00 | 0.00 | 94 | 1015.5 |
| 20260506043022 | 69 | 165 | 0.0 | 0.0 | 0.00 | 0.00 | 0.00 | 94 | 1015.8 |
| 20260506041524 | 70 | 129 | 0.0 | 3.0 | 0.00 | 0.00 | 0.00 | 94 | 1015.8 |
| 20260506040029 | 70 | 150 | 0.0 | 0.0 | 0.00 | 0.00 | 0.00 | 94 | 1016.0 |
| 20260506034534 | 70 | 162 | 0.0 | 0.0 | 0.00 | 0.00 | 0.00 | 94 | 1015.9 |
| 20260506033019 | 70 | 122 | 0.0 | 2.0 | 0.00 | 0.00 | 0.00 | 93 | 1015.8 |
| 20260506031522 | 71 | 131 | 1.0 | 4.0 | 0.00 | 0.00 | 0.00 | 93 | 1015.8 |
| 20260506030024 | 71 | 146 | 2.0 | 5.0 | 0.00 | 0.00 | 0.00 | 93 | 1015.9 |
| 20260506024528 | 71 | 160 | 1.0 | 3.0 | 0.00 | 0.00 | 0.00 | 93 | 1015.7 |
| 20260506023016 | 71 | 148 | 1.0 | 2.0 | 0.00 | 0.00 | 0.00 | 92 | 1015.6 |
| 20260506021520 | 71 | 143 | 1.0 | 3.0 | 0.00 | 0.00 | 0.00 | 91 | 1015.6 |
| 20260506020026 | 71 | 196 | 1.0 | 3.0 | 0.00 | 0.00 | 0.00 | 91 | 1015.8 |
| 20260506014530 | 71 | 139 | 1.0 | 4.0 | 0.00 | 0.00 | 0.00 | 90 | 1015.6 |
| 20260506013027 | 71 | 158 | 2.0 | 5.0 | 0.00 | 0.00 | 0.00 | 89 | 1015.5 |
| 20260506011507 | 71 | 151 | 1.0 | 4.0 | 0.00 | 0.00 | 0.00 | 89 | 1015.4 |
| 20260506010005 | 72 | 143 | 2.0 | 6.0 | 0.00 | 0.00 | 0.00 | 88 | 1015.3 |
| 20260506004504 | 72 | 169 | 2.0 | 5.0 | 0.00 | 0.00 | 0.00 | 87 | 1015.2 |
| 20260506003010 | 72 | 109 | 2.0 | 6.0 | 0.00 | 0.00 | 0.00 | 86 | 1015.0 |
| 20260506001515 | 73 | 169 | 2.0 | 8.0 | 0.00 | 0.00 | 0.00 | 84 | 1014.8 |
| 20260506000003 | 73 | 194 | 4.0 | 8.0 | 0.00 | 0.00 | 0.00 | 82 | 1015.0 |
| 20260505234508 | 74 | 179 | 3.0 | 12.0 | 0.00 | 0.00 | 0.00 | 79 | 1015.0 |
| 20260505233010 | 74 | 170 | 5.0 | 9.0 | 0.00 | 0.00 | 0.00 | 74 | 1015.1 |
| 20260505231516 | 75 | 132 | 4.0 | 10.0 | 0.00 | 0.00 | 0.00 | 69 | 1015.0 |
| 20260505230017 | 76 | 174 | 4.0 | 13.0 | 0.00 | 0.00 | 0.00 | 64 | 1015.1 |
| 20260505224503 | 76 | 188 | 5.0 | 11.0 | 0.00 | 0.00 | 0.00 | 69 | 1015.1 |
| 20260505223005 | 77 | 132 | 5.0 | 13.0 | 0.00 | 0.00 | 0.00 | 69 | 1015.0 |